Regional Weather Roundup
Issued by NWS

Home | Current Version | Previous Version | Graphics & Text | Print | Product List | Glossary On
Versions: 1 2 3 4 5 6 7 8 9 10 11 12 13 14 15 16 17 18 19 20 21 22 23 24 25 26 27 28 29 30 31 32 33 34 35 36 37 38 39 40 41 42 43 44 45 46 47 48 49 50
721
ASUS44 KLIX 161901
RWRLA
LOUISIANA WEATHER ROUNDUP
NATIONAL WEATHER SERVICE NEW ORLEANS LA
200 PM CDT WED APR 16 2014

NOTE: "FAIR" INDICATES FEW OR NO CLOUDS BELOW 12,000 FEET WITH NO
      SIGNIFICANT WEATHER AND/OR OBSTRUCTIONS TO VISIBILITY.
      SKY/WX - SKY CONDITION AND SIGNIFICANT WEATHER.
      TMP - AIR TEMPERATURE.    DP   - DEWPOINT TEMPERATURE.
      RH  - RELATIVE HUMIDITY.  PRES - PRESSURE.
      HX  - HEAT INDEX.         WCI  - WIND CHILL INDEX.

*  THESE STATIONS ARE NOT NWS OR FAA STATIONS AND ARE NOT UNDER
   NWS QUALITY CONTROL.

LAZ040-048-061>063-065-066-069-162000-
SOUTHEAST LOUISIANA

CITY           SKY/WX    TMP DP  RH WIND       PRES   REMARKS
N.O. AUDUBON   NOT AVBL
N.O. INTL ARPT MOSUNNY   61  44  53 NE10      30.19F
N.O. LAKEFRONT SUNNY     58  42  55 NE14      30.20F
N.O. DOWNTOWN* FAIR      61  37  41 E3        30.20F
SLIDELL        SUNNY     62  35  36 S6        30.19F
BATON ROUGE    SUNNY     63  35  35 VRB3      30.18F
BOOTHVILLE     MOSUNNY   60  46  59 NE7       30.20S
BELLE CHASSE   MOSUNNY   62  42  47 SE10      30.19F
BOGALUSA*        N/A     62  31  30 CALM      30.21F
GALLIANO*      NOT AVBL
NEW ROADS*     NOT AVBL
GONZALES*      FAIR      61  38  42 N3        30.18F
HAMMOND*       NOT AVBL
HOUMA*         MOSUNNY   64  41  42 NE9       30.18F
PORT FOURCHON* CLOUDY    61  45  55 VRB3G13   30.19F

$$

LAZ041-044-053-054-162000-
SOUTHWEST LOUISIANA

CITY           SKY/WX    TMP DP  RH WIND       PRES   REMARKS
LAKE CHARLES   MOSUNNY   62  40  44 SE10      30.17F
LAFAYETTE      SUNNY     63  43  48 S9        30.17F
PATTERSON      SUNNY     63  43  48 SE6       30.20F
SALT POINT       N/A     65  45  48 VRB7      30.16F
NEW IBERIA     SUNNY     64  43  46 VRB7      30.17F
CHENAULT AIRPK SUNNY     63  37  39 SE7       30.18F

$$

LAZ027-028-162000-
CENTRAL LOUISIANA

CITY           SKY/WX    TMP DP  RH WIND       PRES   REMARKS
FORT POLK      MOSUNNY   61  32  33 SE5       30.15F
ALEXANDRIA INT SUNNY     60  37  42 E7        30.16F
ALEXANDRIA     SUNNY     62  30  29 SE5       30.17F

$$

LAZ001-002-162000-
NORTHWEST LOUISIANA

CITY           SKY/WX    TMP DP  RH WIND       PRES   REMARKS
SHREVEPORT     PTSUNNY   63  31  30 S14       30.13F
BARKSDALE AFB  MOSUNNY   60  31  33 S14       30.14F
DTN SHREVEPORT MOSUNNY   59  34  39 S9        30.15F

$$

LAZ014-016-162000-
NORTHEAST LOUISIANA

CITY           SKY/WX    TMP DP  RH WIND       PRES   REMARKS
MONROE         SUNNY     59  35  40 VRB5      30.19F
TALLULAH       SUNNY     57  33  40 VRB5      30.20F

$$




USA.gov is the U.S. government's official web portal to all federal, state and local government web resources and services.